TimeEDT,TemperatureF,Dew PointF,Humidity,Sea Level PressureIn,VisibilityMPH,Wind Direction,Wind SpeedMPH,Gust SpeedMPH,PrecipitationIn,Events,Conditions,WindDirDegrees,DateUTC
12:10 AM,64.4,60.8,88,29.99,10.0,South,15.0,-,0.00,,Mostly Cloudy,190,2012-10-14 04:10:00
12:30 AM,66.2,60.8,83,29.98,10.0,South,13.8,19.6,0.00,,Partly Cloudy,190,2012-10-14 04:30:00
1:10 AM,66.2,60.8,83,29.98,10.0,South,12.7,-,0.00,,Mostly Cloudy,190,2012-10-14 05:10:00
1:30 AM,66.2,60.8,83,29.98,10.0,South,12.7,19.6,0.00,,Scattered Clouds,190,2012-10-14 05:30:00
1:50 AM,64.4,60.8,88,29.98,10.0,South,10.4,18.4,0.00,,Partly Cloudy,190,2012-10-14 05:50:00
2:10 AM,64.4,60.8,88,29.97,10.0,South,10.4,18.4,0.00,,Clear,180,2012-10-14 06:10:00
2:30 AM,64.4,60.8,88,29.97,10.0,South,10.4,-,0.00,,Clear,180,2012-10-14 06:30:00
2:50 AM,64.4,59.0,83,29.96,10.0,South,10.4,-,0.00,,Partly Cloudy,180,2012-10-14 06:50:00
3:30 AM,62.6,59.0,88,29.95,10.0,South,11.5,18.4,0.00,,Partly Cloudy,180,2012-10-14 07:30:00
3:50 AM,62.6,59.0,88,29.95,10.0,South,10.4,-,0.00,,Partly Cloudy,180,2012-10-14 07:50:00
4:10 AM,62.6,59.0,88,29.95,10.0,South,11.5,-,0.00,,Mostly Cloudy,180,2012-10-14 08:10:00
4:30 AM,62.6,59.0,88,29.95,10.0,South,10.4,-,0.00,,Partly Cloudy,180,2012-10-14 08:30:00
4:50 AM,62.6,59.0,88,29.95,10.0,South,9.2,-,0.00,,Scattered Clouds,180,2012-10-14 08:50:00
5:10 AM,62.6,59.0,88,29.94,10.0,South,12.7,17.3,0.00,,Scattered Clouds,180,2012-10-14 09:10:00
5:30 AM,62.6,59.0,88,29.94,10.0,South,11.5,-,0.00,,Partly Cloudy,180,2012-10-14 09:30:00
5:50 AM,62.6,57.2,82,29.94,10.0,South,11.5,-,0.00,,Scattered Clouds,180,2012-10-14 09:50:00
6:10 AM,62.6,57.2,82,29.94,10.0,South,11.5,19.6,0.00,,Mostly Cloudy,190,2012-10-14 10:10:00
6:30 AM,62.6,57.2,82,29.94,10.0,South,12.7,20.7,0.00,,Overcast,180,2012-10-14 10:30:00
6:50 AM,62.6,57.2,82,29.93,10.0,South,12.7,19.6,0.00,,Overcast,180,2012-10-14 10:50:00
7:10 AM,62.6,57.2,82,29.93,10.0,South,16.1,26.5,0.01,,Mostly Cloudy,180,2012-10-14 11:10:00
7:30 AM,62.6,57.2,82,29.92,10.0,South,13.8,20.7,0.01,,Scattered Clouds,180,2012-10-14 11:30:00
7:50 AM,62.6,55.4,77,29.92,10.0,South,12.7,-,0.01,,Scattered Clouds,180,2012-10-14 11:50:00
8:10 AM,62.6,55.4,77,29.91,10.0,South,12.7,-,0.00,,Mostly Cloudy,180,2012-10-14 12:10:00
8:30 AM,62.6,55.4,77,29.90,10.0,South,15.0,18.4,0.00,,Scattered Clouds,170,2012-10-14 12:30:00
8:50 AM,62.6,55.4,77,29.91,10.0,South,13.8,23.0,0.00,,Scattered Clouds,170,2012-10-14 12:50:00
9:10 AM,62.6,55.4,77,29.90,10.0,South,15.0,20.7,0.00,,Mostly Cloudy,180,2012-10-14 13:10:00
9:30 AM,62.6,55.4,77,29.89,10.0,South,17.3,27.6,0.00,,Mostly Cloudy,180,2012-10-14 13:30:00
9:50 AM,64.4,55.4,73,29.88,10.0,South,24.2,28.8,0.00,,Partly Cloudy,180,2012-10-14 13:50:00
10:10 AM,64.4,55.4,73,29.87,10.0,South,17.3,31.1,0.00,,Mostly Cloudy,190,2012-10-14 14:10:00
10:30 AM,66.2,55.4,68,29.86,10.0,South,21.9,29.9,0.00,,Scattered Clouds,180,2012-10-14 14:30:00
10:50 AM,66.2,55.4,68,29.84,10.0,South,24.2,33.4,0.00,,Scattered Clouds,180,2012-10-14 14:50:00
11:10 AM,66.2,55.4,68,29.83,10.0,South,20.7,34.5,0.00,,Partly Cloudy,190,2012-10-14 15:10:00
11:30 AM,68.0,55.4,64,29.83,10.0,South,25.3,41.4,0.00,,Scattered Clouds,180,2012-10-14 15:30:00
11:50 AM,66.2,55.4,68,29.82,10.0,South,23.0,38.0,0.00,,Mostly Cloudy,190,2012-10-14 15:50:00
12:10 PM,68.0,55.4,64,29.80,10.0,South,25.3,41.4,0.00,,Mostly Cloudy,190,2012-10-14 16:10:00
12:30 PM,69.8,55.4,60,29.79,10.0,South,21.9,42.6,0.00,,Scattered Clouds,190,2012-10-14 16:30:00
12:50 PM,69.8,57.2,64,29.79,10.0,SSW,23.0,35.7,0.00,,Partly Cloudy,200,2012-10-14 16:50:00
1:10 PM,71.6,57.2,60,29.77,10.0,South,29.9,41.4,0.00,,Partly Cloudy,190,2012-10-14 17:10:00
1:30 PM,69.8,57.2,64,29.77,10.0,South,25.3,41.4,0.00,,Scattered Clouds,190,2012-10-14 17:30:00
1:50 PM,69.8,57.2,64,29.77,10.0,SSW,26.5,38.0,0.00,,Mostly Cloudy,200,2012-10-14 17:50:00
2:30 PM,68.0,57.2,68,29.76,10.0,South,19.6,29.9,0.00,,Mostly Cloudy,190,2012-10-14 18:30:00
2:50 PM,66.2,57.2,73,29.75,5.0,South,16.1,27.6,0.00,,Overcast,190,2012-10-14 18:50:00
3:10 PM,64.4,60.8,88,29.74,5.0,South,17.3,26.5,0.00,,Overcast,190,2012-10-14 19:10:00
3:30 PM,64.4,60.8,88,29.73,5.0,South,17.3,29.9,0.01,,Mostly Cloudy,180,2012-10-14 19:30:00
3:50 PM,64.4,60.8,88,29.71,10.0,South,17.3,23.0,0.01,,Scattered Clouds,170,2012-10-14 19:50:00
4:10 PM,66.2,60.8,83,29.70,10.0,South,20.7,28.8,0.00,,Mostly Cloudy,170,2012-10-14 20:10:00
4:30 PM,66.2,60.8,83,29.68,10.0,South,20.7,31.1,0.00,,Overcast,170,2012-10-14 20:30:00
4:40 PM,66.2,60.8,83,29.68,10.0,South,23.0,36.8,0.00,,Overcast,180,2012-10-14 20:40:00
5:10 PM,69.8,60.8,73,29.68,10.0,South,25.3,33.4,0.00,,Partly Cloudy,180,2012-10-14 21:10:00
5:30 PM,68.0,59.0,73,29.67,10.0,South,18.4,33.4,0.00,,Scattered Clouds,190,2012-10-14 21:30:00
5:50 PM,68.0,60.8,78,29.66,10.0,South,17.3,25.3,0.00,,Mostly Cloudy,180,2012-10-14 21:50:00
6:10 PM,68.0,59.0,73,29.65,10.0,South,20.7,27.6,0.00,,Mostly Cloudy,180,2012-10-14 22:10:00
6:30 PM,66.2,60.8,83,29.65,10.0,South,24.2,31.1,0.00,,Scattered Clouds,180,2012-10-14 22:30:00
6:50 PM,64.4,62.6,94,29.65,2.0,South,16.1,29.9,0.03,,Mostly Cloudy,190,2012-10-14 22:50:00
7:10 PM,64.4,62.6,94,29.64,10.0,South,11.5,19.6,0.00,,Mostly Cloudy,180,2012-10-14 23:10:00
7:30 PM,64.4,62.6,94,29.64,8.0,South,9.2,-,0.02,,Mostly Cloudy,180,2012-10-14 23:30:00
7:50 PM,62.6,62.6,100,29.63,9.0,South,13.8,21.9,0.06,,Mostly Cloudy,190,2012-10-14 23:50:00
8:10 PM,62.6,62.6,100,29.63,10.0,SSW,17.3,24.2,0.00,,Mostly Cloudy,210,2012-10-15 00:10:00
8:30 PM,62.6,62.6,100,29.63,10.0,South,12.7,-,0.00,,Scattered Clouds,180,2012-10-15 00:30:00
8:50 PM,62.6,60.8,94,29.63,10.0,South,12.7,20.7,0.00,,Partly Cloudy,190,2012-10-15 00:50:00
9:10 PM,62.6,60.8,94,29.63,10.0,South,13.8,19.6,0.00,,Clear,190,2012-10-15 01:10:00
9:30 PM,62.6,59.0,88,29.64,10.0,South,15.0,19.6,0.00,,Clear,190,2012-10-15 01:30:00
9:50 PM,62.6,59.0,88,29.64,10.0,South,17.3,21.9,0.00,,Scattered Clouds,190,2012-10-15 01:50:00
10:10 PM,62.6,59.0,88,29.65,7.0,SSW,21.9,36.8,0.00,,Mostly Cloudy,210,2012-10-15 02:10:00
10:30 PM,60.8,57.2,88,29.66,10.0,SW,19.6,34.5,0.00,,Scattered Clouds,230,2012-10-15 02:30:00
10:50 PM,60.8,55.4,82,29.68,10.0,SW,19.6,24.2,0.00,,Scattered Clouds,230,2012-10-15 02:50:00
11:10 PM,59.0,55.4,88,29.68,10.0,WSW,20.7,25.3,0.00,,Overcast,240,2012-10-15 03:10:00
11:30 PM,57.2,53.6,88,29.70,10.0,WSW,17.3,24.2,0.00,,Mostly Cloudy,250,2012-10-15 03:30:00
11:50 PM,55.4,53.6,94,29.71,10.0,WSW,20.7,24.2,0.00,,Mostly Cloudy,250,2012-10-15 03:50:00